Location: Newark
(33.6333°S, 78.8500°W)
Time: 23:12:44
(UTC+00:00)

Courier 1B - Pass Details

Date: 28 September 2019
Orbit: 962 x 1209 km, 28.3° (Epoch: 14 October)

Event Time Altitude Azimuth Distance (km) Brightness Sun altitude
Rises 18:03:08 0° 322° (NW) 4,044 11.2 55.8°
Reaches altitude 10° 18:06:30 10° 334° (NNW) 3,110 10.9 55.5°
Maximum altitude 18:12:35 25° 26° (NNE) 2,208 10.1 54.9°
Drops below altitude 10° 18:18:43 10° 77° (ENE) 3,147 10.2 54.2°
Sets 18:22:08 0° 90° (E) 4,103 10.6 53.8°
